| time (UTC) | temp F | wind direction | speed MPH | gust MPH | rain 1hr in | rain 24hr in | rain mn in | humidity % | barometer mb |
| 20260508093016 | 36 | 310 | 0.0 | 0.0 | 0.00 | 0.03 | 0.03 | 91 | 1011.9 |
| 20260508092249 | 36 | 310 | 0.0 | 0.0 | 0.00 | 0.03 | 0.03 | 90 | 1011.9 |
| 20260508091748 | 36 | 310 | 0.0 | 0.0 | 0.00 | 0.03 | 0.03 | 90 | 1011.7 |
| 20260508091247 | 36 | 310 | 0.0 | 0.0 | 0.00 | 0.03 | 0.03 | 90 | 1011.6 |
| 20260508090747 | 36 | 310 | 0.0 | 0.0 | 0.00 | 0.03 | 0.03 | 90 | 1011.6 |
| 20260508090248 | 37 | 310 | 0.0 | 0.0 | 0.00 | 0.03 | 0.03 | 90 | 1011.6 |
| 20260508085747 | 37 | 310 | 0.0 | 0.0 | 0.00 | 0.03 | 0.03 | 90 | 1011.6 |
| 20260508085248 | 37 | 310 | 0.0 | 0.0 | 0.00 | 0.03 | 0.03 | 90 | 1011.6 |
| 20260508084748 | 37 | 310 | 0.0 | 1.0 | 0.00 | 0.03 | 0.03 | 90 | 1011.6 |
| 20260508084251 | 38 | 310 | 0.0 | 1.0 | 0.00 | 0.03 | 0.03 | 90 | 1011.7 |
| 20260508083747 | 38 | 310 | 0.0 | 0.0 | 0.00 | 0.03 | 0.03 | 90 | 1011.7 |
| 20260508083247 | 38 | 310 | 0.0 | 1.0 | 0.00 | 0.03 | 0.03 | 90 | 1011.6 |
| 20260508082748 | 38 | 310 | 0.0 | 2.0 | 0.00 | 0.03 | 0.03 | 90 | 1011.6 |
| 20260508082510 | 39 | 310 | 0.0 | 2.0 | 0.01 | 0.03 | 0.03 | 90 | 1011.6 |
| 20260508081747 | 39 | 310 | 0.0 | 1.0 | 0.01 | 0.03 | 0.03 | 90 | 1011.6 |
| 20260508081247 | 39 | 310 | 0.0 | 0.0 | 0.01 | 0.03 | 0.03 | 90 | 1011.6 |
| 20260508080747 | 40 | 310 | 0.0 | 0.0 | 0.01 | 0.03 | 0.03 | 90 | 1011.6 |
| 20260508080247 | 40 | 310 | 0.0 | 0.0 | 0.01 | 0.03 | 0.03 | 90 | 1011.6 |
| 20260508075747 | 40 | 310 | 0.0 | 0.0 | 0.01 | 0.03 | 0.03 | 91 | 1011.7 |
| 20260508075248 | 40 | 310 | 0.0 | 0.0 | 0.01 | 0.03 | 0.03 | 91 | 1011.6 |
| 20260508074747 | 40 | 310 | 0.0 | 0.0 | 0.01 | 0.03 | 0.03 | 90 | 1011.5 |
| 20260508074507 | 41 | 310 | 0.0 | 0.0 | 0.01 | 0.03 | 0.03 | 90 | 1011.4 |
| 20260508073747 | 41 | 310 | 0.0 | 0.0 | 0.01 | 0.03 | 0.03 | 91 | 1011.3 |
| 20260508073510 | 41 | 310 | 0.0 | 2.0 | 0.01 | 0.03 | 0.03 | 91 | 1011.6 |
| 20260508072747 | 41 | 310 | 0.0 | 2.0 | 0.01 | 0.03 | 0.03 | 90 | 1011.7 |
| 20260508072247 | 41 | 310 | 0.0 | 2.0 | 0.00 | 0.02 | 0.02 | 90 | 1011.9 |
| 20260508072007 | 41 | 310 | 1.0 | 3.0 | 0.00 | 0.02 | 0.02 | 90 | 1011.9 |
| 20260508070747 | 41 | 310 | 1.0 | 3.0 | 0.00 | 0.02 | 0.02 | 90 | 1011.9 |
| 20260508070248 | 41 | 310 | 1.0 | 5.0 | 0.00 | 0.02 | 0.02 | 90 | 1011.9 |
| 20260508065747 | 41 | 310 | 1.0 | 5.0 | 0.02 | 0.02 | 0.02 | 89 | 1011.9 |
| 20260508065506 | 41 | 311 | 1.0 | 4.0 | 0.02 | 0.02 | 0.02 | 89 | 1011.9 |
| 20260508064743 | 41 | 311 | 1.0 | 4.0 | 0.02 | 0.02 | 0.02 | 89 | 1012.0 |
| 20260508064243 | 41 | 311 | 1.0 | 3.0 | 0.02 | 0.02 | 0.02 | 89 | 1011.9 |
| 20260508063744 | 41 | 311 | 1.0 | 4.0 | 0.02 | 0.02 | 0.02 | 88 | 1011.7 |
| 20260508063243 | 41 | 311 | 2.0 | 5.0 | 0.02 | 0.02 | 0.02 | 88 | 1011.7 |
| 20260508062744 | 41 | 311 | 2.0 | 6.0 | 0.02 | 0.02 | 0.02 | 87 | 1011.7 |
| 20260508062239 | 41 | 325 | 2.0 | 6.0 | 0.02 | 0.02 | 0.02 | 87 | 1011.7 |
| 20260508061739 | 42 | 285 | 3.0 | 9.0 | 0.02 | 0.02 | 0.02 | 86 | 1011.6 |
| 20260508061502 | 42 | 284 | 4.0 | 10.0 | 0.02 | 0.02 | 0.02 | 85 | 1011.7 |
| 20260508060739 | 42 | 319 | 6.0 | 16.0 | 0.02 | 0.02 | 0.02 | 85 | 1011.6 |
| 20260508060240 | 42 | 285 | 6.0 | 16.0 | 0.01 | 0.01 | 0.01 | 84 | 1011.9 |
| 20260508055739 | 43 | 286 | 5.0 | 14.0 | 0.00 | 0.00 | 0.00 | 83 | 1011.7 |
| 20260508055240 | 43 | 306 | 4.0 | 12.0 | 0.00 | 0.00 | 0.00 | 83 | 1011.6 |
| 20260508055004 | 42 | 304 | 3.0 | 9.0 | 0.00 | 0.00 | 0.00 | 82 | 1011.6 |
| 20260508054239 | 42 | 302 | 3.0 | 9.0 | 0.00 | 0.00 | 0.00 | 82 | 1011.5 |
| 20260508054004 | 42 | 298 | 3.0 | 9.0 | 0.00 | 0.00 | 0.00 | 82 | 1011.5 |
| 20260508053239 | 42 | 290 | 3.0 | 7.0 | 0.00 | 0.00 | 0.00 | 82 | 1011.5 |
| 20260508052740 | 42 | 308 | 3.0 | 7.0 | 0.00 | 0.00 | 0.00 | 82 | 1011.6 |
| 20260508052239 | 42 | 304 | 2.0 | 6.0 | 0.00 | 0.00 | 0.00 | 82 | 1011.4 |
| 20260508051739 | 42 | 280 | 3.0 | 9.0 | 0.00 | 0.00 | 0.00 | 83 | 1011.5 |
| 20260508051503 | 41 | 266 | 4.0 | 12.0 | 0.00 | 0.00 | 0.00 | 84 | 1011.5 |
| 20260508050739 | 41 | 355 | 3.0 | 12.0 | 0.00 | 0.00 | 0.00 | 84 | 1011.4 |
| 20260508050239 | 40 | 285 | 1.0 | 9.0 | 0.00 | 0.00 | 0.00 | 85 | 1011.4 |
| 20260508045739 | 40 | 234 | 2.0 | 8.0 | 0.00 | 0.00 | 0.00 | 86 | 1011.4 |
| 20260508045239 | 40 | 303 | 2.0 | 8.0 | 0.00 | 0.00 | 0.00 | 86 | 1011.4 |
| 20260508044739 | 40 | 306 | 1.0 | 5.0 | 0.00 | 0.00 | 0.00 | 87 | 1011.3 |
| 20260508044239 | 40 | 355 | 0.0 | 3.0 | 0.00 | 0.00 | 0.00 | 88 | 1011.3 |
| 20260508043739 | 40 | 5 | 0.0 | 0.0 | 0.00 | 0.00 | 0.00 | 88 | 1011.4 |
| 20260508043239 | 40 | 5 | 0.0 | 0.0 | 0.00 | 0.00 | 0.00 | 88 | 1011.3 |
| 20260508042740 | 40 | 5 | 0.0 | 0.0 | 0.00 | 0.00 | 0.00 | 88 | 1011.3 |
| 20260508042459 | 40 | 5 | 0.0 | 0.0 | 0.00 | 0.00 | 0.00 | 88 | 1011.3 |
| 20260508041739 | 39 | 5 | 0.0 | 0.0 | 0.00 | 0.00 | 0.00 | 88 | 1011.3 |
| 20260508041239 | 39 | 5 | 0.0 | 0.0 | 0.00 | 0.00 | 0.00 | 88 | 1011.3 |
| 20260508040740 | 39 | 5 | 0.0 | 0.0 | 0.00 | 0.00 | 0.00 | 87 | 1011.4 |
| 20260508040536 | 39 | 5 | 0.0 | 0.0 | 0.00 | 0.00 | 0.00 | 87 | 1011.4 |
| 20260508035739 | 39 | 5 | 0.0 | 0.0 | 0.00 | 0.00 | 0.00 | 87 | 1011.4 |
| 20260508035239 | 39 | 5 | 0.0 | 0.0 | 0.00 | 0.00 | 0.00 | 87 | 1011.5 |
| 20260508034739 | 39 | 5 | 0.0 | 0.0 | 0.00 | 0.00 | 0.00 | 87 | 1011.4 |
| 20260508034238 | 38 | 5 | 0.0 | 0.0 | 0.00 | 0.00 | 0.00 | 86 | 1011.5 |
| 20260508034003 | 38 | 5 | 0.0 | 0.0 | 0.00 | 0.00 | 0.00 | 86 | 1011.5 |
| 20260508033238 | 38 | 5 | 0.0 | 0.0 | 0.00 | 0.00 | 0.00 | 86 | 1011.4 |
| 20260508032739 | 38 | 5 | 0.0 | 1.0 | 0.00 | 0.00 | 0.00 | 85 | 1011.3 |
| 20260508032509 | 38 | 5 | 0.0 | 2.0 | 0.00 | 0.00 | 0.00 | 84 | 1011.2 |
| 20260508031740 | 38 | 5 | 0.0 | 2.0 | 0.00 | 0.00 | 0.00 | 84 | 1011.2 |
| 20260508031239 | 38 | 5 | 0.0 | 2.0 | 0.00 | 0.00 | 0.00 | 83 | 1011.3 |
| 20260508030739 | 38 | 5 | 0.0 | 2.0 | 0.00 | 0.00 | 0.00 | 82 | 1011.3 |
| 20260508030239 | 38 | 5 | 0.0 | 0.0 | 0.00 | 0.01 | 0.00 | 81 | 1011.2 |
| 20260508025739 | 38 | 5 | 0.0 | 0.0 | 0.00 | 0.01 | 0.00 | 80 | 1011.1 |
| 20260508025239 | 38 | 5 | 0.0 | 0.0 | 0.00 | 0.01 | 0.00 | 80 | 1011.0 |
| 20260508024736 | 38 | 5 | 0.0 | 0.0 | 0.00 | 0.01 | 0.00 | 80 | 1011.0 |
| 20260508024237 | 39 | 5 | 0.0 | 0.0 | 0.00 | 0.01 | 0.00 | 80 | 1011.0 |
| 20260508023737 | 39 | 5 | 0.0 | 0.0 | 0.00 | 0.01 | 0.00 | 79 | 1011.0 |
| 20260508023237 | 39 | 5 | 0.0 | 0.0 | 0.00 | 0.01 | 0.00 | 78 | 1010.9 |
| 20260508022736 | 39 | 5 | 0.0 | 1.0 | 0.00 | 0.01 | 0.00 | 78 | 1010.9 |
| 20260508022237 | 40 | 5 | 0.0 | 4.0 | 0.00 | 0.01 | 0.00 | 78 | 1010.7 |
| 20260508021737 | 40 | 5 | 0.0 | 4.0 | 0.00 | 0.01 | 0.00 | 77 | 1010.7 |
| 20260508021237 | 40 | 11 | 0.0 | 2.0 | 0.00 | 0.01 | 0.00 | 76 | 1010.6 |
| 20260508020959 | 40 | 11 | 0.0 | 2.0 | 0.00 | 0.01 | 0.00 | 74 | 1010.6 |
| 20260508015957 | 41 | 11 | 0.0 | 0.0 | 0.00 | 0.01 | 0.00 | 73 | 1010.6 |
| 20260508015237 | 41 | 11 | 0.0 | 0.0 | 0.00 | 0.01 | 0.00 | 71 | 1010.7 |
| 20260508014738 | 42 | 11 | 0.0 | 0.0 | 0.00 | 0.01 | 0.00 | 71 | 1010.8 |
| 20260508014455 | 42 | 11 | 0.0 | 0.0 | 0.00 | 0.01 | 0.00 | 71 | 1010.8 |
| 20260508013737 | 42 | 11 | 0.0 | 0.0 | 0.00 | 0.01 | 0.00 | 70 | 1010.8 |
| 20260508013237 | 43 | 11 | 0.0 | 0.0 | 0.00 | 0.01 | 0.00 | 70 | 1010.7 |
| 20260508012736 | 43 | 11 | 0.0 | 0.0 | 0.00 | 0.01 | 0.00 | 69 | 1010.8 |
| 20260508012237 | 43 | 11 | 0.0 | 0.0 | 0.00 | 0.01 | 0.00 | 68 | 1010.8 |
| 20260508011736 | 43 | 11 | 0.0 | 0.0 | 0.00 | 0.01 | 0.00 | 67 | 1010.8 |
| 20260508011237 | 44 | 11 | 0.0 | 0.0 | 0.00 | 0.01 | 0.00 | 65 | 1010.7 |
| 20260508010737 | 44 | 11 | 0.0 | 0.0 | 0.00 | 0.01 | 0.00 | 63 | 1010.7 |
| 20260508010237 | 45 | 11 | 0.0 | 0.0 | 0.00 | 0.01 | 0.00 | 62 | 1010.6 |
| 20260508005738 | 45 | 11 | 0.0 | 0.0 | 0.00 | 0.01 | 0.00 | 61 | 1010.5 |
| 20260508005236 | 46 | 11 | 0.0 | 2.0 | 0.00 | 0.01 | 0.00 | 61 | 1010.4 |
| 20260508004737 | 46 | 11 | 0.0 | 3.0 | 0.00 | 0.01 | 0.00 | 60 | 1010.5 |
| 20260508004237 | 46 | 11 | 0.0 | 3.0 | 0.00 | 0.01 | 0.00 | 59 | 1010.5 |
| 20260508003736 | 47 | 11 | 0.0 | 0.0 | 0.00 | 0.01 | 0.00 | 58 | 1010.4 |
| 20260508003237 | 47 | 11 | 0.0 | 5.0 | 0.00 | 0.01 | 0.00 | 58 | 1010.4 |
| 20260508002737 | 47 | 11 | 0.0 | 5.0 | 0.00 | 0.01 | 0.00 | 58 | 1010.4 |
| 20260508002236 | 47 | 11 | 1.0 | 5.0 | 0.00 | 0.01 | 0.00 | 57 | 1010.4 |
| 20260508001737 | 47 | 11 | 2.0 | 5.0 | 0.00 | 0.01 | 0.00 | 56 | 1010.4 |
| 20260508001237 | 48 | 9 | 1.0 | 3.0 | 0.00 | 0.01 | 0.00 | 57 | 1010.3 |
| 20260508000737 | 48 | 9 | 2.0 | 5.0 | 0.00 | 0.01 | 0.00 | 56 | 1010.4 |
| 20260508000237 | 48 | 9 | 3.0 | 5.0 | 0.00 | 0.01 | 0.00 | 55 | 1010.3 |
| 20260507235736 | 48 | 26 | 2.0 | 5.0 | 0.00 | 0.01 | 0.00 | 57 | 1010.3 |
| 20260507235237 | 48 | 12 | 2.0 | 4.0 | 0.00 | 0.01 | 0.00 | 57 | 1010.3 |
| 20260507235001 | 48 | 13 | 3.0 | 5.0 | 0.00 | 0.01 | 0.00 | 56 | 1010.3 |
| 20260507234237 | 48 | 17 | 3.0 | 9.0 | 0.00 | 0.01 | 0.00 | 56 | 1010.3 |
| 20260507234003 | 49 | 34 | 3.0 | 9.0 | 0.00 | 0.01 | 0.00 | 57 | 1010.3 |
| 20260507233236 | 49 | 15 | 3.0 | 7.0 | 0.00 | 0.01 | 0.00 | 57 | 1010.3 |
| 20260507232737 | 49 | 18 | 3.0 | 7.0 | 0.00 | 0.01 | 0.00 | 58 | 1010.3 |
| 20260507232456 | 49 | 18 | 3.0 | 7.0 | 0.00 | 0.01 | 0.00 | 58 | 1010.3 |
| 20260507231736 | 49 | 20 | 3.0 | 6.0 | 0.00 | 0.01 | 0.00 | 58 | 1010.3 |
| 20260507231237 | 49 | 53 | 3.0 | 6.0 | 0.00 | 0.01 | 0.00 | 57 | 1010.2 |
| 20260507230736 | 50 | 57 | 2.0 | 5.0 | 0.00 | 0.01 | 0.00 | 57 | 1010.1 |
| 20260507230236 | 50 | 345 | 3.0 | 4.0 | 0.00 | 0.01 | 0.00 | 57 | 1010.2 |
| 20260507225737 | 50 | 350 | 3.0 | 7.0 | 0.00 | 0.01 | 0.00 | 55 | 1010.3 |
| 20260507225237 | 50 | 350 | 3.0 | 9.0 | 0.00 | 0.01 | 0.00 | 55 | 1010.2 |
| 20260507224737 | 51 | 28 | 3.0 | 9.0 | 0.00 | 0.01 | 0.00 | 54 | 1010.1 |
| 20260507224237 | 51 | 350 | 4.0 | 10.0 | 0.00 | 0.01 | 0.00 | 53 | 1010.1 |
| 20260507223736 | 51 | 338 | 4.0 | 10.0 | 0.00 | 0.01 | 0.00 | 52 | 1010.0 |
| 20260507223236 | 52 | 355 | 4.0 | 12.0 | 0.00 | 0.01 | 0.00 | 53 | 1010.0 |
| 20260507222738 | 52 | 5 | 5.0 | 12.0 | 0.00 | 0.01 | 0.00 | 51 | 1010.0 |
| 20260507222454 | 53 | 355 | 4.0 | 11.0 | 0.00 | 0.01 | 0.00 | 51 | 1010.0 |
| 20260507221737 | 53 | 355 | 4.0 | 11.0 | 0.00 | 0.01 | 0.00 | 52 | 1010.0 |
| 20260507221236 | 53 | 328 | 4.0 | 11.0 | 0.00 | 0.01 | 0.00 | 50 | 1009.9 |
| 20260507220736 | 53 | 290 | 5.0 | 11.0 | 0.00 | 0.01 | 0.00 | 52 | 1010.0 |
| 20260507220238 | 53 | 343 | 5.0 | 11.0 | 0.00 | 0.01 | 0.00 | 51 | 1009.9 |
| 20260507220002 | 53 | 355 | 4.0 | 12.0 | 0.00 | 0.01 | 0.00 | 55 | 1010.1 |
| 20260507215236 | 53 | 348 | 4.0 | 12.0 | 0.00 | 0.01 | 0.00 | 55 | 1010.1 |
| 20260507214737 | 52 | 347 | 3.0 | 9.0 | 0.00 | 0.01 | 0.00 | 55 | 1010.0 |
| 20260507214237 | 52 | 355 | 4.0 | 11.0 | 0.00 | 0.01 | 0.00 | 56 | 1010.0 |
| 20260507213737 | 52 | 11 | 4.0 | 11.0 | 0.00 | 0.01 | 0.00 | 58 | 1010.0 |
| 20260507213236 | 52 | 355 | 4.0 | 11.0 | 0.00 | 0.01 | 0.00 | 57 | 1010.2 |
| 20260507212737 | 52 | 342 | 5.0 | 11.0 | 0.00 | 0.01 | 0.00 | 57 | 1010.0 |
| 20260507212237 | 52 | 294 | 5.0 | 11.0 | 0.00 | 0.01 | 0.00 | 57 | 1010.0 |
| 20260507211736 | 52 | 351 | 5.0 | 11.0 | 0.00 | 0.01 | 0.00 | 57 | 1009.9 |
| 20260507211500 | 52 | 350 | 5.0 | 12.0 | 0.00 | 0.01 | 0.00 | 56 | 1009.9 |
| 20260507210737 | 52 | 9 | 5.0 | 12.0 | 0.00 | 0.01 | 0.00 | 56 | 1010.0 |
| 20260507205958 | 52 | 33 | 5.0 | 12.0 | 0.00 | 0.01 | 0.00 | 57 | 1010.0 |
| 20260507205236 | 52 | 340 | 4.0 | 10.0 | 0.00 | 0.01 | 0.00 | 56 | 1010.0 |
| 20260507204958 | 52 | 5 | 6.0 | 13.0 | 0.00 | 0.01 | 0.00 | 57 | 1010.0 |
| 20260507204232 | 52 | 322 | 7.0 | 13.0 | 0.00 | 0.01 | 0.00 | 54 | 1010.0 |
| 20260507203732 | 52 | 42 | 5.0 | 12.0 | 0.00 | 0.01 | 0.00 | 55 | 1009.9 |
| 20260507203232 | 52 | 17 | 6.0 | 14.0 | 0.00 | 0.01 | 0.00 | 54 | 1010.0 |
| 20260507202732 | 53 | 340 | 5.0 | 14.0 | 0.00 | 0.01 | 0.00 | 55 | 1010.1 |
| 20260507202232 | 53 | 42 | 4.0 | 11.0 | 0.00 | 0.01 | 0.00 | 55 | 1010.1 |
| 20260507201733 | 53 | 5 | 4.0 | 11.0 | 0.00 | 0.01 | 0.00 | 54 | 1010.1 |
| 20260507201233 | 53 | 344 | 5.0 | 13.0 | 0.00 | 0.01 | 0.00 | 53 | 1010.1 |
| 20260507200732 | 53 | 355 | 6.0 | 13.0 | 0.00 | 0.01 | 0.00 | 53 | 1010.1 |
| 20260507200234 | 53 | 342 | 5.0 | 13.0 | 0.00 | 0.01 | 0.00 | 53 | 1010.1 |
| 20260507195733 | 53 | 348 | 5.0 | 13.0 | 0.00 | 0.01 | 0.00 | 53 | 1010.1 |
| 20260507195232 | 53 | 310 | 5.0 | 13.0 | 0.00 | 0.01 | 0.00 | 56 | 1010.3 |
| 20260507194732 | 53 | 333 | 4.0 | 9.0 | 0.00 | 0.01 | 0.00 | 56 | 1010.3 |
| 20260507194452 | 53 | 28 | 4.0 | 9.0 | 0.00 | 0.01 | 0.00 | 57 | 1010.3 |
| 20260507193732 | 53 | 331 | 4.0 | 11.0 | 0.00 | 0.01 | 0.00 | 57 | 1010.4 |
| 20260507192732 | 53 | 323 | 5.0 | 10.0 | 0.00 | 0.01 | 0.00 | 57 | 1010.5 |
| 20260507192456 | 53 | 343 | 5.0 | 12.0 | 0.00 | 0.01 | 0.00 | 55 | 1010.4 |
| 20260507191733 | 53 | 320 | 6.0 | 12.0 | 0.00 | 0.01 | 0.00 | 55 | 1010.5 |
| 20260507191232 | 53 | 355 | 5.0 | 12.0 | 0.00 | 0.01 | 0.00 | 53 | 1010.5 |
| 20260507190732 | 53 | 34 | 4.0 | 12.0 | 0.00 | 0.01 | 0.00 | 56 | 1010.5 |
| 20260507190455 | 53 | 236 | 4.0 | 9.0 | 0.00 | 0.01 | 0.00 | 52 | 1010.4 |
| 20260507185953 | 53 | 333 | 4.0 | 9.0 | 0.00 | 0.01 | 0.00 | 57 | 1010.5 |
| 20260507185232 | 53 | 321 | 4.0 | 9.0 | 0.00 | 0.01 | 0.00 | 55 | 1010.6 |
| 20260507184732 | 53 | 33 | 4.0 | 9.0 | 0.00 | 0.01 | 0.00 | 54 | 1010.6 |
| 20260507184232 | 54 | 293 | 4.0 | 8.0 | 0.00 | 0.01 | 0.00 | 56 | 1010.6 |
| 20260507183732 | 52 | 346 | 5.0 | 13.0 | 0.00 | 0.01 | 0.00 | 55 | 1010.7 |
| 20260507183232 | 52 | 327 | 5.0 | 13.0 | 0.00 | 0.01 | 0.00 | 56 | 1010.8 |
| 20260507182732 | 52 | 306 | 5.0 | 12.0 | 0.00 | 0.01 | 0.00 | 57 | 1010.8 |
| 20260507182232 | 53 | 41 | 5.0 | 12.0 | 0.00 | 0.01 | 0.00 | 58 | 1010.9 |
| 20260507181953 | 53 | 325 | 6.0 | 12.0 | 0.00 | 0.01 | 0.00 | 56 | 1010.9 |
| 20260507181232 | 54 | 317 | 6.0 | 11.0 | 0.00 | 0.01 | 0.00 | 57 | 1011.0 |
| 20260507180733 | 54 | 5 | 5.0 | 11.0 | 0.00 | 0.01 | 0.00 | 55 | 1010.9 |
| 20260507180232 | 53 | 295 | 6.0 | 11.0 | 0.00 | 0.01 | 0.00 | 56 | 1010.9 |
| 20260507175732 | 54 | 312 | 5.0 | 13.0 | 0.00 | 0.01 | 0.00 | 54 | 1011.0 |
| 20260507175232 | 54 | 268 | 4.0 | 13.0 | 0.00 | 0.01 | 0.00 | 57 | 1011.0 |
| 20260507174731 | 52 | 256 | 4.0 | 10.0 | 0.00 | 0.01 | 0.00 | 57 | 1010.9 |
| 20260507174232 | 52 | 263 | 4.0 | 10.0 | 0.00 | 0.01 | 0.00 | 57 | 1011.1 |
| 20260507173732 | 53 | 286 | 3.0 | 10.0 | 0.00 | 0.01 | 0.00 | 64 | 1011.1 |
| 20260507173232 | 52 | 216 | 4.0 | 9.0 | 0.00 | 0.01 | 0.00 | 63 | 1011.2 |
| 20260507172956 | 52 | 348 | 5.0 | 10.0 | 0.00 | 0.01 | 0.00 | 59 | 1011.3 |
| 20260507172232 | 53 | 324 | 5.0 | 10.0 | 0.00 | 0.01 | 0.00 | 59 | 1011.4 |
| 20260507171732 | 53 | 257 | 5.0 | 11.0 | 0.00 | 0.01 | 0.00 | 61 | 1011.4 |
| 20260507171232 | 52 | 345 | 5.0 | 11.0 | 0.00 | 0.01 | 0.00 | 59 | 1011.4 |
| 20260507170732 | 52 | 275 | 4.0 | 11.0 | 0.00 | 0.01 | 0.00 | 60 | 1011.5 |
| 20260507165732 | 51 | 268 | 3.0 | 8.0 | 0.00 | 0.01 | 0.00 | 64 | 1011.6 |
| 20260507165232 | 50 | 248 | 4.0 | 11.0 | 0.00 | 0.01 | 0.00 | 60 | 1011.6 |
| 20260507164731 | 51 | 293 | 5.0 | 11.0 | 0.00 | 0.01 | 0.00 | 61 | 1011.7 |
| 20260507164232 | 52 | 324 | 4.0 | 12.0 | 0.00 | 0.01 | 0.00 | 62 | 1011.7 |
| 20260507163955 | 52 | 221 | 4.0 | 12.0 | 0.00 | 0.01 | 0.00 | 64 | 1011.9 |
| 20260507163232 | 51 | 288 | 5.0 | 11.0 | 0.00 | 0.01 | 0.00 | 61 | 1011.7 |
| 20260507162732 | 51 | 338 | 5.0 | 10.0 | 0.00 | 0.01 | 0.00 | 65 | 1011.7 |
| 20260507162232 | 50 | 342 | 5.0 | 10.0 | 0.00 | 0.01 | 0.00 | 63 | 1012.0 |
| 20260507161959 | 51 | 299 | 4.0 | 10.0 | 0.00 | 0.02 | 0.00 | 65 | 1012.0 |
| 20260507160732 | 49 | 261 | 3.0 | 8.0 | 0.00 | 0.02 | 0.00 | 66 | 1012.0 |
| 20260507160231 | 49 | 253 | 4.0 | 8.0 | 0.00 | 0.02 | 0.00 | 68 | 1012.1 |
| 20260507155733 | 48 | 255 | 3.0 | 8.0 | 0.00 | 0.02 | 0.00 | 65 | 1012.1 |
| 20260507155456 | 49 | 348 | 3.0 | 9.0 | 0.00 | 0.02 | 0.00 | 65 | 1012.1 |
| 20260507154731 | 48 | 355 | 4.0 | 9.0 | 0.00 | 0.02 | 0.00 | 66 | 1012.2 |
| 20260507154232 | 49 | 341 | 4.0 | 9.0 | 0.00 | 0.03 | 0.00 | 66 | 1012.2 |
| 20260507153731 | 49 | 300 | 3.0 | 9.0 | 0.00 | 0.03 | 0.00 | 68 | 1012.3 |
| 20260507153232 | 48 | 350 | 3.0 | 6.0 | 0.00 | 0.03 | 0.00 | 67 | 1012.4 |
| 20260507152731 | 48 | 350 | 3.0 | 8.0 | 0.00 | 0.03 | 0.00 | 69 | 1012.5 |
| 20260507152231 | 48 | 347 | 3.0 | 8.0 | 0.00 | 0.03 | 0.00 | 66 | 1012.4 |
| 20260507151732 | 48 | 244 | 2.0 | 7.0 | 0.00 | 0.03 | 0.00 | 68 | 1012.5 |
| 20260507151231 | 48 | 244 | 3.0 | 8.0 | 0.00 | 0.03 | 0.00 | 66 | 1012.5 |
| 20260507150732 | 48 | 239 | 3.0 | 8.0 | 0.00 | 0.03 | 0.00 | 68 | 1012.5 |
| 20260507150234 | 47 | 305 | 3.0 | 7.0 | 0.00 | 0.03 | 0.00 | 69 | 1012.5 |
| 20260507145732 | 47 | 59 | 4.0 | 7.0 | 0.00 | 0.03 | 0.00 | 67 | 1012.4 |
| 20260507145453 | 47 | 309 | 3.0 | 9.0 | 0.00 | 0.03 | 0.00 | 68 | 1012.5 |
| 20260507144732 | 46 | 355 | 4.0 | 9.0 | 0.00 | 0.03 | 0.00 | 68 | 1012.6 |
| 20260507144453 | 46 | 342 | 3.0 | 9.0 | 0.00 | 0.03 | 0.00 | 67 | 1012.8 |
| 20260507143731 | 47 | 321 | 3.0 | 6.0 | 0.00 | 0.03 | 0.00 | 67 | 1012.7 |
| 20260507143232 | 47 | 326 | 3.0 | 10.0 | 0.00 | 0.04 | 0.00 | 67 | 1012.8 |
| 20260507142954 | 46 | 298 | 3.0 | 10.0 | 0.00 | 0.04 | 0.00 | 67 | 1012.8 |
| 20260507142232 | 47 | 339 | 2.0 | 10.0 | 0.00 | 0.04 | 0.00 | 66 | 1012.7 |
| 20260507141731 | 46 | 308 | 2.0 | 6.0 | 0.00 | 0.04 | 0.00 | 67 | 1012.8 |
| 20260507141453 | 46 | 349 | 3.0 | 10.0 | 0.00 | 0.04 | 0.00 | 67 | 1012.7 |
| 20260507140732 | 46 | 348 | 4.0 | 10.0 | 0.00 | 0.05 | 0.00 | 67 | 1012.8 |
| 20260507140232 | 47 | 300 | 4.0 | 9.0 | 0.00 | 0.05 | 0.00 | 68 | 1012.8 |
| 20260507135731 | 46 | 0 | 4.0 | 10.0 | 0.00 | 0.05 | 0.00 | 69 | 1012.8 |
| 20260507135231 | 46 | 338 | 4.0 | 11.0 | 0.00 | 0.06 | 0.00 | 67 | 1013.0 |
| 20260507134732 | 46 | 9 | 4.0 | 11.0 | 0.00 | 0.06 | 0.00 | 69 | 1013.1 |
| 20260507134231 | 46 | 285 | 3.0 | 10.0 | 0.00 | 0.06 | 0.00 | 69 | 1013.0 |
| 20260507133732 | 46 | 305 | 3.0 | 8.0 | 0.00 | 0.06 | 0.00 | 69 | 1013.0 |
| 20260507133453 | 46 | 304 | 3.0 | 8.0 | 0.00 | 0.07 | 0.00 | 70 | 1013.1 |
| 20260507132731 | 46 | 319 | 3.0 | 9.0 | 0.00 | 0.07 | 0.00 | 69 | 1013.1 |
| 20260507132232 | 46 | 321 | 2.0 | 9.0 | 0.00 | 0.07 | 0.00 | 69 | 1013.1 |
| 20260507131732 | 46 | 292 | 2.0 | 8.0 | 0.00 | 0.08 | 0.00 | 71 | 1013.0 |
| 20260507131231 | 45 | 288 | 3.0 | 8.0 | 0.00 | 0.08 | 0.00 | 71 | 1012.9 |
| 20260507130732 | 45 | 289 | 1.0 | 8.0 | 0.00 | 0.08 | 0.00 | 72 | 1012.8 |
| 20260507130231 | 45 | 288 | 0.0 | 7.0 | 0.00 | 0.09 | 0.00 | 74 | 1012.8 |
| 20260507125732 | 44 | 288 | 2.0 | 5.0 | 0.00 | 0.10 | 0.00 | 75 | 1012.9 |
| 20260507125233 | 44 | 288 | 3.0 | 7.0 | 0.00 | 0.11 | 0.00 | 77 | 1012.8 |
| 20260507124729 | 43 | 288 | 2.0 | 7.0 | 0.00 | 0.11 | 0.00 | 78 | 1012.9 |
| 20260507124230 | 43 | 288 | 2.0 | 7.0 | 0.00 | 0.12 | 0.00 | 80 | 1013.0 |
| 20260507123729 | 43 | 288 | 2.0 | 8.0 | 0.00 | 0.13 | 0.00 | 82 | 1013.1 |
| 20260507123229 | 42 | 288 | 3.0 | 8.0 | 0.00 | 0.14 | 0.00 | 84 | 1013.0 |
| 20260507122954 | 42 | 288 | 2.0 | 8.0 | 0.00 | 0.15 | 0.00 | 87 | 1013.0 |
| 20260507122230 | 41 | 286 | 3.0 | 7.0 | 0.00 | 0.16 | 0.00 | 89 | 1013.0 |
| 20260507121730 | 41 | 287 | 3.0 | 8.0 | 0.00 | 0.16 | 0.00 | 92 | 1012.9 |
| 20260507121230 | 40 | 286 | 3.0 | 8.0 | 0.00 | 0.17 | 0.00 | 94 | 1012.9 |
| 20260507120729 | 40 | 286 | 2.0 | 7.0 | 0.00 | 0.17 | 0.00 | 95 | 1013.0 |
| 20260507120229 | 40 | 285 | 1.0 | 2.0 | 0.00 | 0.18 | 0.00 | 95 | 1012.9 |
| 20260507115728 | 39 | 285 | 2.0 | 6.0 | 0.00 | 0.19 | 0.00 | 95 | 1012.9 |
| 20260507115229 | 39 | 285 | 2.0 | 6.0 | 0.00 | 0.19 | 0.00 | 95 | 1012.8 |
| 20260507114728 | 39 | 288 | 1.0 | 4.0 | 0.00 | 0.19 | 0.00 | 95 | 1012.8 |
| 20260507114230 | 38 | 288 | 1.0 | 3.0 | 0.00 | 0.19 | 0.00 | 95 | 1012.7 |
| 20260507113729 | 38 | 128 | 1.0 | 3.0 | 0.00 | 0.19 | 0.00 | 95 | 1012.7 |
| 20260507112955 | 37 | 128 | 0.0 | 2.0 | 0.00 | 0.20 | 0.00 | 95 | 1012.7 |
| 20260507112459 | 36 | 128 | 0.0 | 2.0 | 0.00 | 0.20 | 0.00 | 95 | 1012.7 |
| 20260507111729 | 35 | 128 | 1.0 | 2.0 | 0.00 | 0.20 | 0.00 | 94 | 1012.8 |
| 20260507111229 | 34 | 128 | 0.0 | 2.0 | 0.00 | 0.21 | 0.00 | 94 | 1012.8 |
| 20260507110729 | 34 | 128 | 0.0 | 2.0 | 0.00 | 0.21 | 0.00 | 94 | 1012.8 |
| 20260507110229 | 34 | 128 | 0.0 | 1.0 | 0.00 | 0.22 | 0.00 | 94 | 1012.7 |
| 20260507105729 | 33 | 128 | 0.0 | 1.0 | 0.00 | 0.22 | 0.00 | 93 | 1012.6 |
| 20260507104730 | 33 | 299 | 0.0 | 0.0 | 0.00 | 0.24 | 0.00 | 93 | 1012.5 |
| 20260507104229 | 33 | 299 | 0.0 | 0.0 | 0.00 | 0.24 | 0.00 | 93 | 1012.5 |
| 20260507103729 | 33 | 299 | 0.0 | 1.0 | 0.00 | 0.25 | 0.00 | 92 | 1012.4 |
| 20260507103229 | 33 | 299 | 0.0 | 1.0 | 0.00 | 0.25 | 0.00 | 92 | 1012.4 |
| 20260507102729 | 33 | 299 | 0.0 | 2.0 | 0.00 | 0.26 | 0.00 | 92 | 1012.3 |
| 20260507102229 | 33 | 299 | 0.0 | 2.0 | 0.00 | 0.26 | 0.00 | 92 | 1012.4 |
| 20260507101729 | 33 | 299 | 0.0 | 0.0 | 0.00 | 0.27 | 0.00 | 92 | 1012.5 |
| 20260507101228 | 33 | 299 | 0.0 | 0.0 | 0.00 | 0.27 | 0.00 | 92 | 1012.4 |
| 20260507100953 | 33 | 299 | 0.0 | 0.0 | 0.00 | 0.27 | 0.00 | 92 | 1012.3 |
| 20260507100227 | 33 | 299 | 0.0 | 0.0 | 0.00 | 0.27 | 0.00 | 92 | 1012.3 |
| 20260507095727 | 34 | 299 | 0.0 | 0.0 | 0.00 | 0.28 | 0.00 | 92 | 1012.3 |
| 20260507095227 | 34 | 299 | 0.0 | 0.0 | 0.00 | 0.28 | 0.00 | 92 | 1012.4 |
| 20260507094728 | 34 | 299 | 0.0 | 0.0 | 0.00 | 0.28 | 0.00 | 92 | 1012.4 |
| 20260507094227 | 34 | 299 | 0.0 | 0.0 | 0.00 | 0.28 | 0.00 | 92 | 1012.3 |
| 20260507093727 | 34 | 299 | 0.0 | 0.0 | 0.00 | 0.29 | 0.00 | 92 | 1012.4 |
| 20260507093227 | 35 | 299 | 0.0 | 0.0 | 0.00 | 0.30 | 0.00 | 92 | 1012.5 |